When you browse on this site, cookies collect data to enhance your experience and personalize the content and advertising you see.
Visit our Privacy Policy to learn more. By continuing to use the site, you agree to this use of cookies and data.
  • In Romania
  • List of Countries
  • For 7 days
  • Water Temperature
  • Satellite Maps
  • Weather Map
  • Weather Widgets
  • user-avatar
    Login

    Hourly Weather Shkoder

    Today, 22 January, Tuesday

    Time Temperature Precipitation Wind Pressure Humidity
    00:00 +4°C° 0.1 mm 3 mps 738 mmHg 80%
    01:00 +4°C° 0.1 mm 3 mps 737 mmHg 80%
    02:00 +4°C° 0.2 mm 3 mps 737 mmHg 80%
    03:00 +4°C° 0.2 mm 3 mps 736 mmHg 80%
    04:00 +4°C° 0.2 mm 3 mps 736 mmHg 81%
    05:00 +4°C° 0.5 mm 3 mps 736 mmHg 81%
    06:00 +4°C° 0.5 mm 3 mps 735 mmHg 82%
    07:00 +4°C° 0.5 mm 3 mps 735 mmHg 82%
    08:00 +5°C° 0.8 mm 3 mps 735 mmHg 84%
    09:00 +6°C° 0.8 mm 2 mps 735 mmHg 85%
    10:00 +6°C° 0.8 mm 2 mps 734 mmHg 86%
    11:00 +6°C° 1.5 mm 2 mps 734 mmHg 87%
    12:00 +6°C° 1.5 mm 2 mps 733 mmHg 88%
    13:00 +6°C° 1.5 mm 2 mps 732 mmHg 89%
    14:00 +6°C° 1.8 mm 2 mps 732 mmHg 89%
    15:00 +6°C° 1.8 mm 2 mps 731 mmHg 89%
    16:00 +6°C° 1.8 mm 2 mps 731 mmHg 88%
    17:00 +6°C° 1.6 mm 2 mps 731 mmHg 88%
    18:00 +6°C° 1.6 mm 2 mps 730 mmHg 89%
    19:00 +6°C° 1.6 mm 2 mps 730 mmHg 89%
    20:00 +6°C° 1.3 mm 2 mps 730 mmHg 90%
    21:00 +7°C° 1.3 mm 2 mps 730 mmHg 90%
    22:00 +7°C° 1.3 mm 2 mps 730 mmHg 91%
    23:00 +7°C° 0.9 mm 2 mps 730 mmHg 92%

    Tomorrow, 23 January, Wednesday

    Time Temperature Precipitation Wind Pressure Humidity
    00:00 +7°C° 0.9 mm 2 mps 730 mmHg 93%
    01:00 +7°C° 0.9 mm 2 mps 730 mmHg 93%
    02:00 +6°C° 1 mm 2 mps 730 mmHg 93%
    03:00 +5°C° 1 mm 3 mps 730 mmHg 93%
    04:00 +5°C° 1 mm 3 mps 729 mmHg 93%
    05:00 +5°C° 1 mm 3 mps 729 mmHg 93%
    06:00 +4°C° 1 mm 3 mps 729 mmHg 92%
    07:00 +4°C° 1 mm 3 mps 729 mmHg 92%
    08:00 +5°C° 0.8 mm 3 mps 729 mmHg 89%
    09:00 +7°C° 0.8 mm 3 mps 729 mmHg 86%
    10:00 +7°C° 0.8 mm 3 mps 729 mmHg 83%
    11:00 +7°C° 0.7 mm 4 mps 729 mmHg 82%
    12:00 +7°C° 0.7 mm 4 mps 728 mmHg 81%
    13:00 +7°C° 0.7 mm 4 mps 728 mmHg 81%
    14:00 +8°C° 0.5 mm 3 mps 728 mmHg 81%
    15:00 +7°C° 0.5 mm 2 mps 728 mmHg 82%
    16:00 +8°C° 0.5 mm 1 mps 727 mmHg 83%
    17:00 +7°C° 0 mm 1 mps 727 mmHg 84%
    18:00 +7°C° 0 mm 1 mps 728 mmHg 84%
    19:00 +5°C° 0 mm 2 mps 728 mmHg 85%
    20:00 +5°C° 0 mm 2 mps 728 mmHg 83%
    21:00 +5°C° 0 mm 2 mps 728 mmHg 81%
    22:00 +3°C° 0 mm 3 mps 728 mmHg 79%
    23:00 +3°C° 0 mm 3 mps 727 mmHg 78%

    Day after tomorrow, 24 January, Thursday

    Time Temperature Precipitation Wind Pressure Humidity
    00:00 +3°C° 0 mm 3 mps 727 mmHg 77%
    01:00 +4°C° 0 mm 3 mps 726 mmHg 76%
    02:00 +4°C° 0 mm 3 mps 726 mmHg 76%
    03:00 +4°C° 0 mm 3 mps 725 mmHg 76%
    04:00 +4°C° 0 mm 3 mps 725 mmHg 76%
    05:00 +3°C° 0 mm 3 mps 725 mmHg 76%
    06:00 +3°C° 0 mm 3 mps 725 mmHg 76%
    07:00 +3°C° 0 mm 3 mps 725 mmHg 75%
    08:00 +4°C° 0 mm 3 mps 725 mmHg 74%
    09:00 +5°C° 0 mm 4 mps 725 mmHg 74%
    10:00 +6°C° 0 mm 4 mps 725 mmHg 73%
    11:00 +7°C° 0.1 mm 4 mps 725 mmHg 73%
    12:00 +7°C° 0.1 mm 4 mps 725 mmHg 73%
    13:00 +7°C° 0.1 mm 4 mps 725 mmHg 73%
    14:00 +8°C° 0.2 mm 3 mps 725 mmHg 74%
    15:00 +7°C° 0.2 mm 3 mps 725 mmHg 76%
    16:00 +7°C° 0.2 mm 2 mps 725 mmHg 78%
    17:00 +6°C° 0.1 mm 2 mps 726 mmHg 78%
    18:00 +5°C° 0.1 mm 3 mps 726 mmHg 78%
    19:00 +4°C° 0.1 mm 3 mps 727 mmHg 79%
    20:00 +4°C° 0.1 mm 3 mps 727 mmHg 78%
    21:00 +4°C° 0.1 mm 3 mps 728 mmHg 78%
    22:00 +4°C° 0.1 mm 3 mps 728 mmHg 78%
    23:00 +4°C° 0 mm 4 mps 728 mmHg 77%

    25 January, Friday

    Time Temperature Precipitation Wind Pressure Humidity
    00:00 +3°C° 0 mm 4 mps 728 mmHg 77%
    01:00 +3°C° 0 mm 4 mps 728 mmHg 76%
    02:00 +2°C° 0 mm 5 mps 728 mmHg 75%
    03:00 +2°C° 0 mm 5 mps 728 mmHg 73%
    04:00 +2°C° 0 mm 5 mps 728 mmHg 72%
    05:00 +2°C° 0 mm 5 mps 728 mmHg 71%
    06:00 +1°C° 0 mm 5 mps 728 mmHg 71%
    07:00 +1°C° 0 mm 5 mps 729 mmHg 70%
    08:00 +2°C° 0.1 mm 6 mps 729 mmHg 70%
    09:00 +2°C° 0.1 mm 6 mps 729 mmHg 69%
    10:00 +3°C° 0.1 mm 6 mps 729 mmHg 69%
    11:00 +3°C° 0 mm 6 mps 729 mmHg 68%
    12:00 +5°C° 0 mm 5 mps 729 mmHg 67%
    13:00 +5°C° 0 mm 5 mps 728 mmHg 66%
    14:00 +5°C° 0.2 mm 5 mps 728 mmHg 68%
    15:00 +4°C° 0.2 mm 4 mps 728 mmHg 71%
    16:00 +4°C° 0.2 mm 4 mps 728 mmHg 73%
    17:00 +3°C° 0.1 mm 4 mps 729 mmHg 72%
    18:00 +2°C° 0.1 mm 5 mps 729 mmHg 71%
    19:00 +1°C° 0.1 mm 5 mps 729 mmHg 70%
    20:00 +1°C° 0 mm 5 mps 729 mmHg 70%
    21:00 +1°C° 0 mm 4 mps 730 mmHg 69%
    22:00 +1°C° 0 mm 4 mps 730 mmHg 69%
    23:00 +1°C° 0 mm 4 mps 730 mmHg 69%

    26 January, Saturday

    Time Temperature Precipitation Wind Pressure Humidity
    00:00 0°C° 0 mm 4 mps 730 mmHg 69%
    01:00 0°C° 0 mm 4 mps 730 mmHg 69%
    02:00 0°C° 0 mm 4 mps 731 mmHg 68%
    03:00 0°C° 0 mm 4 mps 731 mmHg 68%
    04:00 0°C° 0 mm 4 mps 731 mmHg 68%
    05:00 0°C° 0 mm 4 mps 731 mmHg 67%
    06:00 0°C° 0 mm 5 mps 732 mmHg 67%
    07:00 -1°C° 0 mm 5 mps 732 mmHg 67%
    08:00 0°C° 0 mm 5 mps 733 mmHg 65%
    09:00 +1°C° 0 mm 5 mps 733 mmHg 63%
    10:00 +2°C° 0 mm 5 mps 733 mmHg 61%
    11:00 +3°C° 0 mm 5 mps 733 mmHg 60%
    12:00 +4°C° 0 mm 4 mps 733 mmHg 59%
    13:00 +5°C° 0 mm 4 mps 733 mmHg 59%
    14:00 +4°C° 0 mm 4 mps 733 mmHg 61%
    15:00 +4°C° 0 mm 4 mps 733 mmHg 63%
    16:00 +4°C° 0 mm 3 mps 734 mmHg 65%
    17:00 +3°C° 0 mm 3 mps 734 mmHg 67%
    18:00 +2°C° 0 mm 3 mps 734 mmHg 69%
    19:00 +1°C° 0 mm 3 mps 735 mmHg 71%
    20:00 +1°C° 0 mm 3 mps 735 mmHg 71%
    21:00 +1°C° 0 mm 3 mps 735 mmHg 72%
    22:00 +1°C° 0 mm 3 mps 735 mmHg 72%
    23:00 +1°C° 0 mm 3 mps 735 mmHg 72%

    27 January, Sunday

    Time Temperature Precipitation Wind Pressure Humidity
    00:00 0°C° 0 mm 3 mps 735 mmHg 72%
    01:00 +1°C° 0 mm 2 mps 735 mmHg 72%
    02:00 +1°C° 0 mm 2 mps 734 mmHg 71%
    03:00 +2°C° 0 mm 2 mps 734 mmHg 69%
    04:00 +2°C° 0 mm 2 mps 734 mmHg 68%
    05:00 +2°C° 0 mm 2 mps 734 mmHg 67%
    06:00 +3°C° 0 mm 1 mps 734 mmHg 66%
    07:00 +3°C° 0 mm 1 mps 734 mmHg 65%
    08:00 +4°C° 0 mm 1 mps 733 mmHg 61%
    09:00 +6°C° 0 mm 1 mps 733 mmHg 57%
    10:00 +7°C° 0 mm 1 mps 733 mmHg 53%
    11:00 +7°C° 0 mm 1 mps 733 mmHg 54%
    12:00 +7°C° 0 mm 2 mps 733 mmHg 54%
    13:00 +7°C° 0 mm 2 mps 732 mmHg 55%
    14:00 +7°C° 0 mm 2 mps 732 mmHg 60%
    15:00 +7°C° 0 mm 1 mps 732 mmHg 65%
    16:00 +7°C° 0 mm 1 mps 732 mmHg 71%
    17:00 +6°C° 0 mm 1 mps 733 mmHg 74%
    18:00 +6°C° 0 mm 1 mps 733 mmHg 78%
    19:00 +5°C° 0 mm 1 mps 733 mmHg 82%
    20:00 +5°C° 0.1 mm 1 mps 733 mmHg 83%
    21:00 +5°C° 0.1 mm 2 mps 734 mmHg 84%
    22:00 +5°C° 0.1 mm 2 mps 734 mmHg 85%
    23:00 +5°C° 0.5 mm 2 mps 733 mmHg 83%
    Show more